FORMOSAT-5 (42920 NORAD) Tracking and Keplerian Element Data

This shows tracking and keplerian element data for the satellite.

Feedback or suggestion? Click here.




ElementValue
Catalog42920
NameFORMOSAT-5
Epoch Orbit26957
Epoch Day269.87981985
Epoch Year2022
RAAN345.3402
Inclination98.2337
Eccentricity0.0009544
Argument of Perigee305.1063
Mean Anonmoly54.9208
Mean Motion14.50874738
Decay Rate6.2E-07
L11 42920U 17049A 22269.87981985 .00000062 00000+0 26880-4 0 9999
L22 42920 98.2337 345.3402 0009544 305.1063 54.9208 14.50874738269576

Live tracking and technical data element details for FORMOSAT-5 (NORAD 42920). FORMOSAT-5 can be tracked NOW for your location showing map with azimuth and elevation plus other details from your city location.

Track the satellite on the map from your city or location and see movement details for azimuth, elevation, latitude, longitude, range, height, and movement on the map or in text.







IsCatalogInMostPopularTable: catalog: 42920, numindb: 636
Update: records affected: 1



GetName: 42920 FORMOSAT-5

Hit Count: updated at: Wed, 28 Sep 2022 21:42:28 GMT